QPF
0.00 0.00 0.00 0.01 0.03 0.01 0.00 0.00 0.00 0.00 0.00 0.00 0.00 0.00 0.00 0.00 0.00 0.00 0.00 0.00 0.00 0.00 0.00 0.00 0.00 0.01 0.01 0.01 0.00 0.00 0.00 0.00 0.00 0.00 0.00 0.00 0.00 0.00 0.00 0.00 0.00 0.01 0.01
0.00 0.00 0.00 0.01 0.02 0.01 0.00 0.00 0.00 0.00 0.00 0.00 0.00 0.00 0.00 0.00 0.00 0.00 0.00 0.00 0.00 0.00 0.00 0.00 0.00 0.01 0.01 0.01 0.00 0.00 0.00 0.00 0.00 0.00 0.00 0.00 0.00 0.00 0.00 0.00 0.00 0.02 0.04
0.00 0.00 0.00 0.01 0.01 0.00 0.00 0.00 0.00 0.00 0.00 0.00 0.00 0.00 0.00 0.00 0.00 0.00 0.00 0.00 0.00 0.00 0.00 0.00 0.00 0.00 0.01 0.02 0.01 0.00 0.00 0.00 0.00 0.00 0.00 0.00 0.00 0.00 0.00 0.00 0.00 0.01 0.02
0.00 0.00 0.00 0.01 0.00 0.00 0.00 0.00 0.00 0.00 0.00 0.00 0.00 0.01 0.01 0.00 0.00 0.00 0.00 0.00 0.00 0.00 0.00 0.00 0.00 0.00 0.00 0.00 0.00 0.00 0.00 0.00 0.00 0.00 0.00 0.00 0.00 0.00 0.00 0.00 0.00 0.00 0.00
0.00 0.00 0.00 0.00 0.00 0.00 0.00 0.00 0.00 0.00 0.00 0.00 0.00 0.01 0.01 0.00 0.00 0.00 0.00 0.00 0.00 0.00 0.00 0.00 0.00 0.00 0.00 0.00 0.00 0.00 0.00 0.00 0.00 0.00 0.00 0.00 0.00 0.00 0.00 0.00 0.00 0.00 0.00
0.00 0.00 0.00 0.00 0.00 0.00 0.00 0.00 0.00 0.00 0.00 0.00 0.00 0.00 0.00 0.00 0.00 0.00 0.00 0.00 0.00 0.00 0.00 0.00 0.00 0.00 0.00 0.00 0.00 0.00 0.00 0.00 0.00 0.00 0.00 0.00 0.00 0.00 0.00 0.00 0.00 0.00 0.00
0.00 0.00 0.00 0.00 0.00 0.00 0.00 0.00 0.00 0.00 0.00 0.00 0.00 0.00 0.00 0.00 0.00 0.00 0.00 0.00 0.00 0.00 0.00 0.00 0.00 0.00 0.00 0.00 0.00 0.00 0.00 0.00 0.00 0.00 0.00 0.00 0.00 0.00 0.00 0.00 0.00 0.00 0.00
0.00 0.00 0.00 0.00 0.00 0.00 0.00 0.00 0.00 0.00 0.00 0.00 0.00 0.00 0.00 0.00 0.00 0.00 0.00 0.00 0.00 0.00 0.00 0.00 0.00 0.00 0.00 0.00 0.00 0.00 0.00 0.00 0.00 0.00 0.00 0.00 0.00 0.00 0.00 0.00 0.00 0.00 0.00
0.00 0.00 0.00 0.00 0.00 0.00 0.00 0.00 0.00 0.00 0.00 0.00 0.00 0.00 0.00 0.00 0.00 0.00 0.00 0.00 0.00 0.00 0.00 0.00 0.00 0.00 0.00 0.00 0.00 0.00 0.00 0.00 0.00 0.00 0.00 0.00 0.00 0.00 0.00 0.00 0.00 0.00 0.00
0.00 0.00 0.00 0.00 0.00 0.00 0.00 0.00 0.00 0.00 0.00 0.00 0.00 0.00 0.00 0.00 0.00 0.00 0.00 0.00 0.00 0.00 0.00 0.00 0.00 0.00 0.00 0.00 0.00 0.00 0.00 0.00 0.00 0.00 0.00 0.00 0.00 0.00 0.00 0.00 0.00 0.00 0.00
0.00 0.00 0.00 0.00 0.00 0.00 0.00 0.00 0.00 0.00 0.00 0.00 0.00 0.00 0.00 0.00 0.00 0.00 0.00 0.00 0.00 0.00 0.00 0.00 0.00 0.00 0.00 0.00 0.00 0.00 0.00 0.00 0.00 0.00 0.00 0.00 0.00 0.00 0.00 0.00 0.00 0.00 0.00
0.00 0.00 0.00 0.00 0.00 0.00 0.00 0.00 0.00 0.00 0.00 0.00 0.00 0.00 0.00 0.00 0.00 0.00 0.00 0.00 0.00 0.00 0.00 0.00 0.00 0.00 0.00 0.00 0.00 0.00 0.00 0.00 0.00 0.00 0.00 0.00 0.00 0.00 0.00 0.00 0.00 0.00 0.00
0.00 0.00 0.00 0.00 0.00 0.00 0.00 0.00 0.00 0.00 0.00 0.00 0.00 0.00 0.00 0.00 0.00 0.00 0.00 0.00 0.00 0.00 0.00 0.00 0.00 0.00 0.00 0.00 0.00 0.00 0.00 0.00 0.00 0.00 0.00 0.00 0.00 0.00 0.00 0.00 0.00 0.00 0.00
0.00 0.00 0.00 0.00 0.00 0.00 0.00 0.00 0.00 0.00 0.00 0.00 0.00 0.00 0.00 0.00 0.00 0.00 0.00 0.00 0.00 0.00 0.00 0.00 0.00 0.00 0.00 0.00 0.00 0.00 0.00 0.00 0.00 0.00 0.00 0.00 0.00 0.00 0.00 0.00 0.00 0.00 0.00
0.00 0.00 0.00 0.00 0.00 0.00 0.00 0.00 0.00 0.00 0.00 0.00 0.00 0.00 0.00 0.00 0.00 0.00 0.00 0.00 0.00 0.00 0.00 0.00 0.00 0.00 0.00 0.00 0.00 0.00 0.00 0.00 0.00 0.00 0.00 0.00 0.00 0.00 0.00 0.00 0.00 0.00 0.00
0.00 0.00 0.00 0.00 0.00 0.00 0.00 0.00 0.00 0.00 0.00 0.00 0.00 0.00 0.00 0.00 0.00 0.00 0.00 0.00 0.00 0.00 0.00 0.00 0.00 0.00 0.00 0.00 0.00 0.00 0.00 0.00 0.00 0.00 0.00 0.00 0.00 0.00 0.00 0.00 0.00 0.00 0.00
0.00 0.00 0.00 0.00 0.00 0.00 0.00 0.00 0.00 0.00 0.00 0.00 0.00 0.00 0.00 0.00 0.00 0.00 0.00 0.00 0.00 0.00 0.00 0.00 0.00 0.00 0.00 0.00 0.00 0.00 0.00 0.00 0.00 0.00 0.00 0.00 0.00 0.00 0.00 0.00 0.00 0.00 0.00
0.00 0.00 0.00 0.00 0.00 0.00 0.00 0.00 0.00 0.00 0.00 0.00 0.00 0.00 0.00 0.00 0.00 0.00 0.00 0.00 0.00 0.00 0.00 0.00 0.00 0.00 0.00 0.00 0.00 0.00 0.00 0.00 0.00 0.00 0.00 0.00 0.00 0.00 0.00 0.00 0.00 0.00 0.00
0.00 0.00 0.00 0.00 0.00 0.00 0.00 0.00 0.00 0.00 0.00 0.00 0.00 0.00 0.00 0.00 0.00 0.00 0.00 0.00 0.00 0.00 0.00 0.00 0.00 0.00 0.00 0.00 0.00 0.00 0.00 0.00 0.00 0.00 0.00 0.00 0.00 0.00 0.00 0.00 0.00 0.00 0.00
0.00 0.00 0.00 0.00 0.00 0.00 0.00 0.00 0.00 0.00 0.00 0.00 0.00 0.00 0.00 0.00 0.00 0.00 0.00 0.00 0.00 0.00 0.00 0.00 0.00 0.00 0.00 0.00 0.00 0.00 0.00 0.00 0.00 0.00 0.00 0.00 0.00 0.00 0.00 0.00 0.00 0.00 0.00
0.00 0.00 0.00 0.00 0.00 0.00 0.00 0.00 0.00 0.00 0.00 0.00 0.00 0.00 0.00 0.00 0.00 0.00 0.00 0.00 0.00 0.00 0.00 0.00 0.00 0.00 0.00 0.00 0.00 0.00 0.00 0.00 0.00 0.00 0.00 0.00 0.00 0.00 0.00 0.00 0.00 0.00 0.00
0.00 0.00 0.00 0.00 0.00 0.00 0.00 0.00 0.00 0.00 0.00 0.00 0.00 0.00 0.00 0.00 0.00 0.00 0.00 0.00 0.00 0.00 0.00 0.00 0.00 0.00 0.00 0.00 0.00 0.00 0.00 0.00 0.00 0.00 0.00 0.00 0.00 0.00 0.00 0.00 0.00 0.00 0.00
0.00 0.00 0.00 0.00 0.00 0.00 0.00 0.00 0.00 0.00 0.00 0.00 0.00 0.00 0.00 0.00 0.00 0.00 0.00 0.00 0.00 0.00 0.00 0.00 0.00 0.00 0.00 0.00 0.00 0.00 0.00 0.00 0.00 0.00 0.00 0.00 0.00 0.00 0.00 0.00 0.00 0.00 0.00
0.00 0.00 0.00 0.00 0.00 0.00 0.00 0.00 0.00 0.00 0.00 0.00 0.00 0.00 0.00 0.00 0.00 0.00 0.00 0.00 0.00 0.00 0.00 0.00 0.00 0.01 0.01 0.01 0.00 0.00 0.00 0.00 0.01 0.00 0.00 0.00 0.00 0.00 0.00 0.00 0.00 0.00 0.00
0.00 0.00 0.00 0.00 0.00 0.00 0.00 0.00 0.00 0.00 0.00 0.00 0.00 0.00 0.00 0.00 0.00 0.00 0.00 0.00 0.00 0.00 0.00 0.01 0.01 0.02 0.02 0.02 0.02 0.02 0.02 0.02 0.02 0.02 0.02 0.00 0.00 0.00 0.00 0.00 0.00 0.00 0.00
0.00 0.00 0.00 0.00 0.00 0.00 0.00 0.00 0.00 0.00 0.00 0.00 0.00 0.00 0.00 0.00 0.00 0.00 0.00 0.00 0.00 0.00 0.01 0.01 0.02 0.03 0.04 0.04 0.04 0.05 0.05 0.04 0.03 0.02 0.02 0.01 0.01 0.00 0.00 0.00 0.00 0.00 0.00
MSLP
1012.88 1012.66 1012.57 1012.66 1012.91 1013.26 1013.63 1013.94 1014.13 1014.20 1014.15 1014.04 1013.94 1013.90 1013.94 1014.06 1014.22 1014.37 1014.47 1014.49 1014.43 1014.32 1014.19 1014.09 1014.06 1014.10 1014.21 1014.36 1014.50 1014.61 1014.66 1014.64 1014.57 1014.48 1014.37 1014.28 1014.20 1014.15 1014.10 1014.05 1013.99 1013.91 1013.82
1012.58 1012.41 1012.39 1012.54 1012.84 1013.23 1013.62 1013.94 1014.13 1014.20 1014.16 1014.07 1014.00 1013.99 1014.07 1014.21 1014.39 1014.56 1014.66 1014.68 1014.62 1014.50 1014.38 1014.28 1014.25 1014.29 1014.39 1014.51 1014.63 1014.70 1014.73 1014.70 1014.63 1014.53 1014.44 1014.37 1014.31 1014.27 1014.24 1014.19 1014.13 1014.06 1013.97
1012.22 1012.11 1012.14 1012.35 1012.71 1013.14 1013.56 1013.91 1014.13 1014.21 1014.20 1014.14 1014.10 1014.12 1014.22 1014.38 1014.57 1014.73 1014.82 1014.83 1014.77 1014.65 1014.53 1014.44 1014.41 1014.44 1014.52 1014.62 1014.71 1014.77 1014.77 1014.74 1014.67 1014.60 1014.53 1014.48 1014.45 1014.43 1014.40 1014.37 1014.31 1014.24 1014.16
1011.85 1011.78 1011.87 1012.14 1012.54 1013.02 1013.47 1013.85 1014.09 1014.21 1014.23 1014.20 1014.19 1014.24 1014.35 1014.51 1014.69 1014.84 1014.92 1014.92 1014.85 1014.74 1014.62 1014.54 1014.51 1014.54 1014.61 1014.70 1014.77 1014.81 1014.81 1014.77 1014.72 1014.67 1014.63 1014.60 1014.59 1014.59 1014.58 1014.55 1014.50 1014.44 1014.38
1011.53 1011.50 1011.63 1011.94 1012.38 1012.89 1013.37 1013.76 1014.03 1014.17 1014.21 1014.21 1014.23 1014.29 1014.41 1014.57 1014.73 1014.86 1014.92 1014.92 1014.85 1014.74 1014.64 1014.58 1014.57 1014.60 1014.67 1014.74 1014.80 1014.83 1014.83 1014.80 1014.77 1014.73 1014.72 1014.72 1014.72 1014.72 1014.72 1014.69 1014.66 1014.61 1014.57
1011.32 1011.31 1011.48 1011.81 1012.27 1012.78 1013.26 1013.65 1013.92 1014.06 1014.12 1014.14 1014.18 1014.25 1014.38 1014.53 1014.68 1014.80 1014.85 1014.84 1014.78 1014.69 1014.61 1014.57 1014.57 1014.62 1014.68 1014.75 1014.81 1014.83 1014.83 1014.81 1014.79 1014.78 1014.78 1014.78 1014.79 1014.79 1014.78 1014.76 1014.73 1014.71 1014.70
1011.24 1011.25 1011.43 1011.77 1012.21 1012.70 1013.16 1013.52 1013.77 1013.91 1013.97 1014.00 1014.05 1014.13 1014.26 1014.41 1014.56 1014.67 1014.72 1014.71 1014.66 1014.60 1014.55 1014.53 1014.55 1014.60 1014.67 1014.74 1014.79 1014.81 1014.81 1014.80 1014.79 1014.78 1014.79 1014.79 1014.79 1014.78 1014.76 1014.73 1014.70 1014.70 1014.72
1011.28 1011.31 1011.48 1011.81 1012.23 1012.68 1013.08 1013.40 1013.61 1013.72 1013.77 1013.81 1013.87 1013.97 1014.11 1014.27 1014.41 1014.52 1014.57 1014.57 1014.54 1014.49 1014.46 1014.46 1014.49 1014.56 1014.63 1014.69 1014.74 1014.75 1014.76 1014.75 1014.73 1014.73 1014.72 1014.72 1014.70 1014.66 1014.62 1014.58 1014.56 1014.56 1014.61
1011.39 1011.43 1011.61 1011.92 1012.29 1012.68 1013.03 1013.28 1013.44 1013.53 1013.57 1013.61 1013.69 1013.80 1013.96 1014.13 1014.28 1014.38 1014.44 1014.44 1014.42 1014.38 1014.36 1014.37 1014.41 1014.48 1014.55 1014.60 1014.64 1014.65 1014.65 1014.64 1014.62 1014.61 1014.59 1014.56 1014.52 1014.46 1014.39 1014.34 1014.31 1014.32 1014.38
1011.49 1011.55 1011.73 1012.02 1012.36 1012.69 1012.97 1013.16 1013.28 1013.34 1013.38 1013.43 1013.53 1013.67 1013.84 1014.02 1014.17 1014.28 1014.33 1014.33 1014.30 1014.26 1014.25 1014.26 1014.30 1014.36 1014.42 1014.47 1014.50 1014.50 1014.49 1014.47 1014.44 1014.41 1014.38 1014.33 1014.26 1014.18 1014.09 1014.02 1013.98 1013.99 1014.06
1011.49 1011.58 1011.78 1012.06 1012.36 1012.64 1012.87 1013.02 1013.11 1013.16 1013.21 1013.29 1013.41 1013.57 1013.76 1013.95 1014.09 1014.19 1014.22 1014.21 1014.17 1014.12 1014.10 1014.11 1014.14 1014.19 1014.24 1014.28 1014.30 1014.29 1014.27 1014.24 1014.20 1014.16 1014.10 1014.04 1013.95 1013.85 1013.74 1013.65 1013.59 1013.59 1013.65
1011.35 1011.48 1011.69 1011.96 1012.24 1012.49 1012.68 1012.81 1012.90 1012.96 1013.03 1013.14 1013.30 1013.49 1013.69 1013.88 1014.01 1014.09 1014.09 1014.06 1014.00 1013.94 1013.90 1013.90 1013.93 1013.98 1014.02 1014.05 1014.05 1014.03 1014.00 1013.95 1013.90 1013.84 1013.77 1013.68 1013.58 1013.46 1013.34 1013.23 1013.16 1013.14 1013.18
1011.04 1011.20 1011.43 1011.70 1011.96 1012.20 1012.38 1012.51 1012.60 1012.69 1012.81 1012.96 1013.15 1013.37 1013.58 1013.76 1013.88 1013.92 1013.90 1013.84 1013.76 1013.69 1013.65 1013.65 1013.67 1013.72 1013.75 1013.77 1013.77 1013.73 1013.68 1013.61 1013.53 1013.45 1013.36 1013.26 1013.15 1013.02 1012.89 1012.77 1012.68 1012.64 1012.65
1010.59 1010.76 1011.00 1011.26 1011.52 1011.74 1011.92 1012.07 1012.20 1012.33 1012.50 1012.70 1012.93 1013.16 1013.38 1013.54 1013.64 1013.66 1013.61 1013.53 1013.44 1013.37 1013.33 1013.34 1013.37 1013.42 1013.46 1013.47 1013.45 1013.40 1013.31 1013.21 1013.11 1013.00 1012.89 1012.77 1012.65 1012.51 1012.37 1012.24 1012.14 1012.08 1012.06
1010.07 1010.23 1010.44 1010.69 1010.93 1011.14 1011.33 1011.50 1011.67 1011.86 1012.07 1012.32 1012.58 1012.83 1013.04 1013.19 1013.26 1013.26 1013.20 1013.12 1013.03 1012.98 1012.96 1012.99 1013.05 1013.11 1013.15 1013.15 1013.11 1013.03 1012.91 1012.77 1012.62 1012.47 1012.33 1012.20 1012.06 1011.92 1011.78 1011.64 1011.52 1011.44 1011.39
1009.58 1009.69 1009.85 1010.05 1010.25 1010.45 1010.65 1010.84 1011.05 1011.28 1011.54 1011.82 1012.10 1012.35 1012.55 1012.69 1012.74 1012.73 1012.67 1012.60 1012.54 1012.52 1012.55 1012.61 1012.69 1012.77 1012.81 1012.81 1012.74 1012.62 1012.45 1012.26 1012.06 1011.87 1011.69 1011.53 1011.38 1011.23 1011.08 1010.95 1010.82 1010.71 1010.63
1009.21 1009.24 1009.32 1009.44 1009.58 1009.75 1009.93 1010.14 1010.38 1010.65 1010.94 1011.24 1011.52 1011.76 1011.95 1012.06 1012.10 1012.09 1012.05 1012.00 1011.99 1012.01 1012.09 1012.19 1012.30 1012.40 1012.44 1012.41 1012.32 1012.15 1011.93 1011.69 1011.43 1011.19 1010.98 1010.78 1010.61 1010.46 1010.31 1010.17 1010.04 1009.92 1009.81
1009.04 1008.95 1008.92 1008.94 1009.01 1009.12 1009.29 1009.50 1009.76 1010.04 1010.35 1010.64 1010.91 1011.13 1011.28 1011.37 1011.40 1011.38 1011.36 1011.36 1011.39 1011.46 1011.58 1011.72 1011.86 1011.96 1011.99 1011.94 1011.81 1011.60 1011.33 1011.03 1010.73 1010.44 1010.19 1009.97 1009.78 1009.62 1009.47 1009.33 1009.20 1009.07 1008.95
1009.09 1008.88 1008.71 1008.61 1008.59 1008.65 1008.79 1008.99 1009.25 1009.54 1009.83 1010.11 1010.34 1010.51 1010.62 1010.67 1010.68 1010.67 1010.66 1010.68 1010.75 1010.87 1011.02 1011.18 1011.32 1011.42 1011.43 1011.35 1011.19 1010.94 1010.63 1010.29 1009.95 1009.63 1009.34 1009.10 1008.90 1008.73 1008.59 1008.45 1008.32 1008.20 1008.07
1009.36 1009.01 1008.72 1008.51 1008.40 1008.40 1008.51 1008.69 1008.94 1009.21 1009.48 1009.71 1009.89 1010.00 1010.05 1010.05 1010.02 1009.99 1009.99 1010.02 1010.10 1010.23 1010.39 1010.55 1010.67 1010.74 1010.73 1010.62 1010.42 1010.14 1009.81 1009.45 1009.09 1008.75 1008.45 1008.20 1007.99 1007.81 1007.67 1007.54 1007.42 1007.30 1007.19
1009.79 1009.33 1008.92 1008.62 1008.44 1008.40 1008.47 1008.64 1008.87 1009.12 1009.34 1009.52 1009.62 1009.66 1009.63 1009.56 1009.48 1009.41 1009.38 1009.40 1009.46 1009.57 1009.70 1009.82 1009.90 1009.93 1009.87 1009.73 1009.51 1009.22 1008.88 1008.52 1008.16 1007.82 1007.52 1007.26 1007.04 1006.86 1006.72 1006.60 1006.49 1006.39 1006.28
1010.32 1009.77 1009.29 1008.93 1008.70 1008.63 1008.69 1008.84 1009.05 1009.27 1009.44 1009.55 1009.57 1009.52 1009.40 1009.25 1009.10 1008.97 1008.88 1008.85 1008.86 1008.91 1008.97 1009.02 1009.03 1008.99 1008.89 1008.71 1008.47 1008.18 1007.86 1007.52 1007.17 1006.85 1006.55 1006.28 1006.05 1005.87 1005.72 1005.59 1005.49 1005.41 1005.32
1010.86 1010.28 1009.77 1009.39 1009.15 1009.08 1009.13 1009.28 1009.47 1009.65 1009.76 1009.80 1009.73 1009.58 1009.38 1009.14 1008.90 1008.69 1008.53 1008.42 1008.34 1008.30 1008.26 1008.21 1008.12 1008.00 1007.84 1007.62 1007.37 1007.09 1006.78 1006.47 1006.14 1005.83 1005.53 1005.26 1005.01 1004.80 1004.62 1004.49 1004.39 1004.32 1004.26
1011.37 1010.81 1010.32 1009.95 1009.74 1009.68 1009.75 1009.89 1010.06 1010.20 1010.26 1010.22 1010.08 1009.84 1009.55 1009.22 1008.90 1008.60 1008.35 1008.14 1007.96 1007.79 1007.63 1007.46 1007.26 1007.05 1006.81 1006.56 1006.29 1006.01 1005.72 1005.42 1005.12 1004.80 1004.49 1004.18 1003.89 1003.63 1003.42 1003.25 1003.14 1003.07 1003.04
1011.82 1011.33 1010.90 1010.58 1010.41 1010.38 1010.46 1010.60 1010.75 1010.85 1010.86 1010.76 1010.54 1010.24 1009.87 1009.47 1009.07 1008.70 1008.35 1008.04 1007.74 1007.45 1007.16 1006.86 1006.54 1006.23 1005.91 1005.60 1005.31 1005.02 1004.73 1004.44 1004.12 1003.78 1003.43 1003.06 1002.70 1002.38 1002.09 1001.88 1001.74 1001.66 1001.64
1012.21 1011.82 1011.48 1011.24 1011.12 1011.12 1011.21 1011.34 1011.47 1011.53 1011.49 1011.33 1011.06 1010.71 1010.29 1009.84 1009.39 1008.95 1008.53 1008.12 1007.72 1007.31 1006.89 1006.46 1006.02 1005.61 1005.21 1004.84 1004.51 1004.19 1003.88 1003.56 1003.21 1002.82 1002.39 1001.94 1001.49 1001.06 1000.70 1000.41 1000.21 1000.11 1000.09
Thickness
5770 5770 5769 5766 5763 5760 5757 5755 5754 5753 5753 5752 5752 5751 5751 5750 5750 5749 5747 5746 5745 5745 5744 5744 5742 5740 5738 5735 5732 5730 5729 5727 5724 5721 5719 5718 5716 5714 5711 5708 5707 5705 5702
5775 5771 5768 5765 5762 5759 5757 5755 5753 5751 5751 5751 5751 5750 5749 5749 5749 5748 5746 5745 5744 5743 5742 5741 5740 5738 5735 5732 5728 5725 5724 5721 5718 5715 5714 5713 5712 5710 5708 5706 5704 5702 5698
5774 5770 5767 5764 5761 5758 5756 5753 5751 5750 5750 5750 5750 5749 5748 5747 5747 5746 5745 5743 5742 5740 5739 5738 5737 5735 5732 5727 5724 5720 5718 5715 5712 5710 5710 5709 5708 5707 5705 5702 5700 5697 5694
5772 5768 5765 5763 5760 5757 5754 5752 5750 5749 5749 5749 5749 5748 5747 5746 5745 5744 5743 5742 5740 5737 5735 5734 5733 5731 5727 5723 5719 5716 5713 5710 5707 5706 5706 5705 5704 5703 5700 5697 5694 5691 5688
5771 5767 5764 5761 5759 5756 5753 5751 5749 5748 5748 5747 5747 5746 5745 5744 5743 5742 5741 5739 5737 5734 5732 5729 5728 5726 5722 5718 5714 5711 5709 5706 5703 5702 5702 5700 5699 5697 5694 5691 5688 5685 5682
5769 5766 5763 5760 5758 5756 5753 5750 5748 5747 5747 5746 5745 5743 5742 5742 5741 5739 5738 5736 5733 5730 5728 5725 5724 5721 5718 5714 5711 5708 5705 5703 5700 5698 5697 5695 5694 5692 5689 5685 5683 5681 5677
5767 5765 5762 5759 5757 5755 5752 5749 5747 5746 5745 5744 5742 5741 5740 5739 5738 5736 5734 5732 5730 5727 5724 5723 5721 5718 5715 5712 5709 5706 5703 5700 5698 5696 5694 5692 5691 5689 5685 5682 5679 5677 5673
5766 5764 5761 5758 5756 5754 5752 5749 5746 5745 5744 5742 5741 5739 5738 5736 5735 5733 5731 5729 5727 5724 5722 5721 5719 5716 5713 5710 5707 5705 5702 5699 5696 5694 5691 5689 5688 5686 5682 5679 5676 5673 5669
5765 5762 5760 5758 5756 5753 5751 5748 5746 5744 5742 5741 5739 5737 5735 5734 5732 5731 5729 5727 5725 5723 5721 5719 5717 5715 5712 5709 5705 5703 5700 5697 5694 5691 5688 5686 5685 5683 5680 5677 5674 5670 5667
5761 5760 5759 5757 5755 5752 5750 5748 5746 5744 5741 5739 5738 5736 5734 5732 5730 5728 5726 5725 5723 5721 5719 5717 5715 5713 5711 5708 5705 5702 5699 5696 5693 5689 5686 5685 5683 5682 5679 5674 5671 5668 5664
5756 5757 5757 5755 5754 5752 5750 5747 5745 5743 5740 5738 5736 5734 5732 5729 5727 5726 5724 5723 5721 5719 5717 5715 5713 5711 5710 5707 5705 5701 5698 5695 5692 5687 5684 5682 5681 5679 5676 5672 5668 5665 5662
5753 5754 5754 5753 5752 5751 5749 5746 5744 5742 5739 5737 5735 5732 5729 5727 5725 5723 5722 5720 5718 5717 5715 5713 5711 5709 5707 5704 5701 5698 5695 5692 5689 5686 5682 5680 5678 5676 5673 5670 5666 5662 5659
5755 5754 5754 5751 5750 5749 5748 5745 5742 5740 5737 5734 5732 5730 5727 5724 5722 5720 5719 5717 5716 5714 5711 5709 5707 5705 5702 5699 5696 5693 5691 5688 5686 5683 5681 5678 5675 5674 5671 5668 5664 5660 5657
5754 5755 5755 5752 5750 5748 5746 5744 5741 5737 5734 5732 5729 5727 5724 5721 5719 5717 5715 5715 5713 5710 5707 5704 5702 5700 5697 5694 5691 5689 5687 5685 5683 5681 5679 5675 5672 5671 5669 5666 5663 5659 5655
5754 5755 5756 5754 5751 5748 5745 5742 5739 5736 5733 5730 5726 5723 5720 5718 5716 5714 5713 5711 5708 5706 5703 5700 5697 5694 5692 5689 5687 5684 5682 5681 5680 5678 5676 5673 5670 5668 5666 5663 5660 5657 5653
5757 5756 5756 5754 5753 5750 5746 5743 5740 5736 5731 5727 5723 5721 5717 5715 5713 5711 5709 5707 5704 5702 5699 5695 5692 5689 5687 5684 5682 5680 5678 5676 5675 5673 5672 5669 5667 5664 5661 5659 5657 5654 5650
5758 5758 5757 5756 5754 5750 5747 5744 5740 5735 5730 5725 5721 5718 5715 5713 5710 5707 5705 5703 5701 5696 5693 5689 5685 5682 5679 5677 5676 5675 5674 5672 5671 5669 5667 5665 5662 5660 5657 5655 5653 5650 5647
5754 5755 5756 5757 5754 5751 5748 5744 5739 5734 5729 5725 5721 5717 5713 5709 5706 5702 5700 5698 5695 5691 5688 5684 5680 5677 5675 5673 5671 5669 5669 5668 5667 5665 5662 5659 5657 5654 5652 5650 5647 5645 5642
5752 5754 5755 5755 5754 5750 5746 5742 5736 5731 5726 5723 5719 5714 5711 5707 5704 5700 5698 5696 5692 5688 5685 5681 5678 5674 5672 5669 5665 5664 5663 5662 5662 5661 5658 5654 5652 5649 5647 5645 5642 5640 5637
5745 5749 5751 5752 5750 5746 5740 5733 5728 5724 5721 5719 5715 5712 5709 5705 5702 5698 5696 5693 5688 5684 5682 5677 5674 5670 5668 5664 5659 5661 5660 5658 5658 5657 5654 5651 5649 5646 5643 5641 5638 5635 5632
5737 5740 5741 5742 5742 5739 5733 5726 5720 5717 5716 5714 5712 5709 5705 5702 5699 5695 5693 5691 5686 5683 5681 5678 5672 5668 5665 5658 5652 5653 5655 5654 5655 5655 5649 5646 5645 5642 5640 5638 5634 5631 5629
5725 5727 5729 5730 5732 5732 5729 5724 5718 5714 5710 5707 5705 5702 5700 5698 5696 5693 5690 5688 5685 5681 5678 5674 5668 5663 5661 5654 5648 5644 5648 5653 5657 5651 5647 5644 5642 5637 5635 5633 5630 5627 5625
5712 5713 5716 5717 5718 5719 5720 5717 5712 5707 5702 5698 5695 5693 5692 5690 5688 5686 5685 5683 5681 5676 5673 5669 5663 5655 5653 5651 5644 5637 5635 5643 5644 5644 5641 5639 5636 5633 5631 5628 5624 5621 5619
5700 5702 5704 5704 5704 5704 5705 5703 5698 5692 5687 5684 5682 5681 5680 5679 5677 5675 5674 5672 5670 5668 5664 5662 5658 5652 5647 5645 5642 5637 5633 5631 5625 5633 5636 5631 5628 5627 5625 5622 5619 5617 5613
5691 5692 5693 5693 5692 5690 5689 5687 5684 5679 5675 5673 5671 5668 5667 5665 5663 5661 5660 5658 5657 5655 5653 5651 5648 5644 5640 5637 5634 5631 5626 5623 5618 5613 5622 5628 5624 5623 5620 5616 5614 5613 5610
5683 5683 5682 5681 5678 5676 5675 5673 5669 5665 5661 5659 5656 5653 5651 5650 5648 5646 5645 5643 5641 5639 5638 5636 5634 5632 5629 5626 5624 5621 5617 5614 5613 5608 5609 5615 5617 5623 5618 5613 5612 5611 5608